Regional Weather Roundup
Issued by NWS

Home | Current Version | Previous Version | Text Only | Print | Product List | Glossary On
Versions: 1 2 3 4 5 6 7 8 9 10 11 12 13 14 15 16 17 18 19 20 21 22 23 24 25 26 27 28
000
ASUS44 KBMX 290610
RWRAL

ALABAMA REGIONAL WEATHER ROUNDUP
NATIONAL WEATHER SERVICE BIRMINGHAM AL
100 AM CDT SUN MAY 29 2016

NOTE: "FAIR" INDICATES FEW OR NO CLOUDS BELOW 12,000 FEET
WITH NO SIGNIFICANT WEATHER AND/OR OBSTRUCTIONS TO VISIBILITY.

THE REMARK "TC" DENOTES TEMPERATURE IN DEGREES CELSIUS.

ALZ001>011-014-016>018-020-290700-
NORTH ALABAMA

CITY           SKY/WX    TMP DP  RH WIND       PRES   REMARKS
MUSCLE SHOALS  PTCLDY    69  63  81 E3        30.10R
6HR MIN TEMP:  67; 6HR MAX TEMP:  80;

HUNTSVILLE     PTCLDY    69  64  84 E3        30.10F
6HR MIN TEMP:  68; 6HR MAX TEMP:  78;

DECATUR        CLEAR     66  65  96 E6        30.11S
6HR MIN TEMP:  65; 6HR MAX TEMP:  77; 6HR PCP: TRACE;

HALEYVILLE     FAIR      65  63  93 CALM      30.13S
6HR MIN TEMP:  64; 6HR MAX TEMP:  76;

GADSDEN        PTCLDY    64  63  96 CALM      30.10F FOG
6HR MIN TEMP:  64; 6HR MAX TEMP:  77;

$$

ALZ012-013-022-023-030>036-040>044-290700-
WEST CENTRAL ALABAMA

CITY           SKY/WX    TMP DP  RH WIND       PRES   REMARKS
TUSCALOOSA     CLEAR     69  66  90 CALM      30.08S
6HR MIN TEMP:  69; 6HR MAX TEMP:  83;

$$

ALZ015-024>027-033>036-040>044-290700-
CENTRAL ALABAMA

CITY           SKY/WX    TMP DP  RH WIND       PRES   REMARKS
BIRMINGHAM     PTCLDY    70  65  84 CALM      30.12S
6HR MIN TEMP:  69; 6HR MAX TEMP:  81;

MONTGOMERY     CLOUDY    77  67  71 CALM      30.08S
6HR MIN TEMP:  75; 6HR MAX TEMP:  84;

SHELBY CO ARPT CLEAR     69  66  90 CALM      30.10S
6HR MIN TEMP:  69; 6HR MAX TEMP:  80;

MAXWELL AFB    CLOUDY    73  68  85 N2        30.07S
6HR MIN TEMP:  73; 6HR MAX TEMP:  82; 6HR PCP: TRACE;

GREENVILLE     FAIR      72  68  87 CALM      30.07F
6HR MIN TEMP:  72; 6HR MAX TEMP:  81; 6HR PCP: TRACE;

$$

ALZ019-021-028-029-037-038-045>048-290700-
EAST CENTRAL ALABAMA

CITY           SKY/WX    TMP DP  RH WIND       PRES   REMARKS
ANNISTON       PTCLDY    68  65  90 E3        30.11S
6HR MIN TEMP:  68; 6HR MAX TEMP:  79;

ALEXANDER CITY CLEAR     73  72  98 CALM      30.10S
6HR MIN TEMP:  70; 6HR MAX TEMP:  78;

AUBURN         CLEAR    N/A N/A N/A CALM      30.10F
$$

ALZ051>064-290700-
SOUTHWEST ALABAMA

CITY           SKY/WX    TMP DP  RH WIND       PRES   REMARKS
MOBILE         CLEAR     67  67 100 CALM      30.08S
6HR MIN TEMP:  67; 6HR MAX TEMP:  79;

BROOKLEY FIELD CLEAR     70  69  97 W3        30.09R
6HR MIN TEMP:  69; 6HR MAX TEMP:  79;

EVERGREEN      CLEAR     69  67  93 CALM      30.08S
6HR MIN TEMP:  69; 6HR MAX TEMP:  82;

$$

ALZ049-050-065>069-290700-
SOUTHEAST ALABAMA

CITY           SKY/WX    TMP DP  RH WIND       PRES   REMARKS
DOTHAN         CLEAR     73  67  81 CALM      30.09F
6HR MIN TEMP:  72; 6HR MAX TEMP:  83;

OZARK          CLEAR     70  68  94 W2        30.06F
6HR MIN TEMP:  70; 6HR MAX TEMP:  80;

TROY           CLOUDY    71  68  90 CALM      30.08F
6HR MIN TEMP:  71; 6HR MAX TEMP:  82;

EUFAULA        NOT AVBL
$$




USA.gov is the U.S. government's official web portal to all federal, state and local government web resources and services.